Location: Newark
(25.0000°N, 73.5000°E)
Time: 00:38:55
(UTC+00:00)

RS-15 - Pass Details

Date: 21 February 2020
Orbit: 1898 x 2146 km, 64.8° (Epoch: 01 April)

Event Time Altitude Azimuth Distance (km) Brightness Sun altitude
Rises 16:06:55 0° 235° (SW) 5,382 10.8 -42.2°
Reaches altitude 10° 16:10:46 10° 244° (WSW) 4,354 10.3 -43.1°
Maximum altitude 16:20:22 33° 305° (NW) 2,851 9.1 -45.2°
Drops below altitude 10° 16:29:53 10° 6° (N) 4,286 9.8 -47.3°
Sets 16:33:43 0° 16° (NNE) 5,288 10.3 -48.2°
